sat.trackr.live / text

‹ back to catalog

STARLINK-31957

NORAD 59926 · 2024-106E

PAYLOAD ACTIVE UNKNOWN

§ Identity

Operator
Country
US
Launch date
2024-06-01
Launch site
AFETR
Launch vehicle
Mass (kg)
RCS (m²)

Purposes: comms

External: N2YO · Heavens-Above · Gunter

§ Orbital elements

Epoch: 2026-09-20T20:17:15.844128Z

Period
94.27 min
Inclination
43.0033°
Eccentricity
0.0001027
Mean motion
15.27576673 rev/d
Perigee alt
482.4 km
Apogee alt
483.8 km
Semi-major
6,861.2 km
B*
6.1795e-7
RAAN
310.0163°
Arg perigee
275.0007°
Mean anomaly
85.0728°
Rev number
13,042

§ Raw data

STARLINK-319571 59926U 24106E   26263.84532227 -.00000245  00000+0  61795-6 0  99912 59926  43.0033 310.0163 0001027 275.0007  85.0728 15.27576673130420

JSON: /api/v1/satellites/59926 · /tle

For live sub-satellite position, see the globe view (requires WebGL).

§ Visibility from observer

Set your observer location to see the next 7 days of passes ≥ 10°. The values pass through the URL so the page stays shareable.

No JS? Fill the form by hand. The geolocation button needs JavaScript.